Regional Weather Roundup
Issued by NWS

Home | Current Version | Previous Version | Text Only | Print | Product List | Glossary Off
Versions: 1 2 3 4 5 6 7 8 9 10 11 12 13 14 15 16 17 18 19 20 21 22 23 24 25 26 27 28 29 30 31 32 33 34 35 36 37 38 39 40 41 42 43 44 45 46 47 48 49 50

000
ASUS43 KLOT 241403
RWRIL

ILLINOIS REGIONAL WEATHER ROUNDUP
NATIONAL WEATHER SERVICE CHICAGO/ROMEOVILLE IL
900 AM CDT TUE APR 24 2018

NOTE: "FAIR" INDICATES FEW OR NO CLOUDS BELOW 12,000 FEET WITH NO
SIGNIFICANT WEATHER AND/OR OBSTRUCTIONS TO VISIBILITY.

* THESE STATIONS ARE NOT UNDER NWS QUALITY CONTROL. THEY ALSO MAY NOT
  REPORT WEATHER SUCH AS PRECIPITATION OR FOG.

ILZ001-002-007-009-015-016-024-241500-
NORTHWEST ILLINOIS

CITY           SKY/WX    TMP DP  RH WIND       PRES   REMARKS
MOLINE         FAIR      59  30  33 N5        30.08S
STERLING*      PTSUNNY   55  33  43 N9        30.09R
SAVANNA*       FAIR      57  35  44 NW6       30.08F
$$

ILZ003-004-008-010-011-017-018-241500-
NORTH CENTRAL ILLINOIS

CITY           SKY/WX    TMP DP  RH WIND       PRES   REMARKS
ROCKFORD       PTSUNNY   55  29  36 N12       30.10S
FREEPORT*      FAIR      55  31  40 N9        30.10F
ROCHELLE*      FAIR      54  32  43 NE8       30.08S
DE KALB*       FAIR      53  37  56 N5        30.07F
PERU*          CLOUDY    56  45  66 NE6       30.07S
$$

ILZ005-006-012>014-019>023-241500-
NORTHEAST ILLINOIS

CITY           SKY/WX    TMP DP  RH WIND       PRES   REMARKS
CHICAGO-OHARE  PTSUNNY   52  41  66 N7        30.06S
CHICAGO-MIDWAY PTSUNNY   56  45  66 N6        30.06S
AURORA         CLOUDY    55  45  68 NE5       30.05F
LANSING*       FAIR      53  48  84 NE6       30.06S
JOLIET*        PTSUNNY   57  49  73 N5        30.05F
WAUKEGAN       PTSUNNY   50  37  61 VRB3      30.07F
DUPAGE AIRPORT CLOUDY    55  45  68 N6        30.05F
KANKAKEE*      CLOUDY    52  51  97 NE8       30.05S
WHEELING       CLOUDY    53  39  59 N3        30.08F
MORRIS*        CLOUDY    55  47  73 N6        30.04F
ROMEOVILLE*    FAIR      56  45  68 N6        30.05F
NORTHERLY ISL    N/A     48  41  76 NW7         N/A
$$

LMZ740>746-241500-
SOUTHERN LAKE MICHIGAN

STATION/POSITION SKY/WX   TEMP    WIND        PRES    VSBY  WAVE
                          AIR SEA DIR/SP/G                  HT/PER
                          (F)     (DEG/KT/KT) (MB)    (MI)  (FT/S)
HARRISON CRIB              42     340/ 10/ 10   N/A
BURNHAM HARBOR             49     330/  8/  8   N/A
CALUMET HARBOR             47     340/  8/  9 1017.5F
BURNS HARBOR               43      CALM  /  1 1018.6S
MICHIGAN CITY              44      50/  7/  7   N/A
ST. JOSEPH                 48 42  100/  4/  4 1018.7F         1/ 4
$$

ILZ025>027-034>036-040-047-049-050-058-095>099-241500-
WEST-CENTRAL ILLINOIS

CITY           SKY/WX    TMP DP  RH WIND       PRES   REMARKS
QUINCY         CLOUDY    55  49  80 N10       30.07S
GALESBURG*     CLOUDY    58  42  56 N7        30.08F
MACOMB*        CLOUDY    54  41  62 N9        30.10S
JACKSONVILLE*  CLOUDY    53  50  92 N9        30.05S FOG
PITTSFIELD*    CLOUDY    56  53  89 N7        30.07S
$$

ILZ028>032-037-038-041>044-048-051>054-059>061-241500-
CENTRAL ILLINOIS

CITY           SKY/WX    TMP DP  RH WIND       PRES   REMARKS
PONTIAC        CLOUDY    55  54  98 NE8       30.05F FOG
BLOOMINGTON    CLOUDY    52  51  97 N9        30.04F FOG
DECATUR        CLOUDY    55  52  89 N10       30.01S
PEORIA         CLOUDY    55  46  71 N6        30.06S
LACON*         CLOUDY    53  44  71 N6        30.06S
LINCOLN*       CLOUDY    54  54  99 N7        30.04F FOG
SPRINGFIELD    CLOUDY    55  54  96 N10       30.04F FOG
TAYLORVILLE    CLOUDY    53  53  97 N13       30.02S FOG
$$

ILZ033-039-045-046-055>057-062-063-241500-
EAST-CENTRAL ILLINOIS

CITY           SKY/WX    TMP DP  RH WIND       PRES   REMARKS
CHAMPAIGN      PTSUNNY   53  51  93 N7        30.01F
DANVILLE*      CLOUDY    52  51  98 N9        29.99S
RANTOUL*       CLOUDY    55  53  94 NE9       30.01F
MATTOON        CLOUDY    52  51  97 NE12G28   29.99S
PARIS*         CLOUDY    54  51  92 NE7       30.01R
$$

ILZ079-100>102-241500-
SOUTHWEST ILLINOIS

CITY           SKY/WX    TMP DP  RH WIND       PRES   REMARKS
ALTON          CLOUDY    54  54 100 N13       30.02S FOG
BELLEVILLE     CLOUDY    56  54  94 N10       29.99S
CAHOKIA*       LGT RAIN  55  54  96 N9        30.01S FOG
SPARTA*        CLOUDY    55  55 100 NW7       30.00S FOG
$$

ILZ064>066-069>071-074>076-080>082-084>086-088>090-092>094-241500-
SOUTH-CENTRAL ILLINOIS

CITY           SKY/WX    TMP DP  RH WIND       PRES   REMARKS
CARBONDALE     CLOUDY    56  55  97 NW9       29.98R FOG
CAIRO*         CLOUDY    59  56  92 N7        29.96S
EFFINGHAM*     CLOUDY    54  54 100 N6        30.01S
MARION         CLOUDY    55  55 100 N6        29.98S FOG
MT. VERNON     CLOUDY    55  53  93 N3        29.99R
CENTRALIA*     CLOUDY    56  55  97 N6        29.99R
SALEM*         CLOUDY    57  54  90 N6        30.00R
METROPOLIS*    CLOUDY    58  56  94 N6        29.97S
$$

ILZ067-068-072-073-078-083-087-091-241500-
SOUTHEAST ILLINOIS

CITY           SKY/WX    TMP DP  RH WIND       PRES   REMARKS
LAWRENCEVILLE  LGT RAIN  54  52  93 MISG      29.97S FOG
FLORA*         DRIZZLE   55  53  96 N6        29.99S
FAIRFIELD*     CLOUDY    54  53  96 N5        29.97S
HARRISBURG*    CLOUDY    56  56  97 N5        29.97S
ROBINSON*      CLOUDY    53  51  95 NE6       29.99R
CARMI*         DRIZZLE   54  53  98 N7        29.96S
$$

ABBREVIATIONS USED IN REMARKS
   TC - TEMPERATURE IN CELSIUS
  WCI - WIND CHILL INDEX
   HX - HEAT INDEX
  VSB - VISIBILITY
$$




USA.gov is the U.S. government's official web portal to all federal, state and local government web resources and services.